This demonstration page uses our WeatherBlox Daily Observations layout. Learn more.

Left ArrowRight Arrow

41.12389, -100.76542

Hourly Observations for May 30, 2017

Temp ( °F °C ) Dew Point ( °F °C ) Humidity (%) Winds ( mph kmh ) Pressure ( in mb ) Visibility ( mi km ) Precip ( " mm )
12:53 am 00:53 Clear 43 6.1 40 4.4 89 89 Calm 30.11 1020 10 16 0.00 0.00
1:53 am 01:53 Clear 41 5 38 3.3 89 89 Calm 30.10 1019 10 16 0.00 0.00
2:53 am 02:53 Clear 42 5.6 39 3.9 89 89 SSW 3 6 30.10 1019 10 16 0.00 0.00
3:53 am 03:53 Clear 39 3.9 36 2.2 89 89 WSW 3 6 30.10 1019 10 16 0.00 0.00
4:53 am 04:53 Clear 38 3.3 35 1.7 89 89 Calm 30.10 1019 10 16 0.00 0.00
5:53 am 05:53 Clear 37 2.8 35 1.7 93 93 WNW 3 6 30.10 1019 10 16 0.00 0.00
6:53 am 06:53 Sunny 40 4.4 37 2.8 89 89 Calm 30.11 1020 10 16 0.00 0.00
7:53 am 07:53 Sunny 48 8.9 45 7.2 89 89 Calm 30.10 1019 10 16 0.00 0.00
8:53 am 08:53 Sunny 55 12.8 46 7.8 72 72 NW 3 6 30.11 1020 10 16 0.00 0.00
9:53 am 09:53 Sunny 62 16.7 44 6.7 52 52 Calm 30.10 1019 10 16 0.00 0.00
10:53 am 10:53 Sunny 69 20.6 39 3.9 33 33 Calm 30.09 1019 10 16 0.00 0.00
11:53 am 11:53 Sunny 71 21.7 42 5.6 35 35 WNW 6 9 30.08 1019 10 16 0.00 0.00
12:38 pm 12:38 Hazy 74 23.3 41 5 31 31 W 3 6 29.97 1015 2 3 0.00 0.00
12:46 pm 12:46 Sunny 75 23.9 42 5.6 31 31 VRB 7 11 29.94 1014 10 16 0.00 0.00
12:53 pm 12:53 Sunny 74 23.3 42 5.6 32 32 W 7 11 30.06 1018 10 16 0.00 0.00
1:53 pm 13:53 Sunny 77 25 40 4.4 26 26 WNW 13 20 30.05 1018 10 16 0.00 0.00
2:53 pm 14:53 Sunny 78 25.6 42 5.6 28 28 NW 12 19 30.03 1017 10 16 0.00 0.00
3:53 pm 15:53 Sunny 79 26.1 40 4.4 25 25 NNW 10 17 30.02 1017 10 16 0.00 0.00
4:53 pm 16:53 Sunny 79 26.1 38 3.3 23 23 NW 12 19 30.02 1017 10 16 0.00 0.00
5:53 pm 17:53 Sunny 78 25.6 37 2.8 23 23 NNW 10 17 30.03 1017 10 16 0.00 0.00
6:53 pm 18:53 Sunny 76 24.4 37 2.8 24 24 NNW 10 17 30.01 1016 10 16 0.00 0.00
7:53 pm 19:53 Sunny 74 23.3 32 0 21 21 N 9 15 30.00 1016 10 16 0.00 0.00
8:53 pm 20:53 Sunny 65 18.3 38 3.3 37 37 NE 6 9 30.01 1016 10 16 0.00 0.00
9:53 pm 21:53 Clear 54 12.2 41 5 62 62 NE 5 7 30.04 1017 10 16 0.00 0.00
10:53 pm 22:53 Clear 55 12.8 38 3.3 53 53 ESE 6 9 30.04 1017 10 16 0.00 0.00
11:53 pm 23:53 Clear 52 11.1 39 3.9 61 61 ENE 5 7 30.05 1018 10 16 0.00 0.00

Powered by AerisWeather